[[{"header":{"parameterUnit":"m.s-1","parameterCategory":1,"la1":30.2991,"la2":30.254,"lo1":-89.0895,"lo2":-89.0444,"dy":0.0017,"dx":0.0017,"nx":28,"ny":28,"refTime":"2024-07-14T09:00:00:Z","depth":0,"parameterNumber":2,"parameterNumberName":"U-component_of_WINDS"},"data":[0,0,0,0,0,0,0,0,0,0,0,0,0,0,0,0,0,0,0,0,0,0,0,0,0,0,0,0,0,0,0,0,0,0,0,0,0,0,0,0,0,0,0,0,0,0,0,0,0,0,0,0,0,0,0,0,0,0,1.8151,1.8152,0,1.8226,1.8227,1.8228,1.8188,1.8186,1.8184,1.8182,1.8259,1.8263,1.8267,0,0,0,0,0,0,0,0,0,0,0,0,0,1.7972,1.7976,1.8151,1.8152,1.8153,1.8226,1.8227,1.8228,1.8188,1.8186,1.8183,1.8181,1.8258,1.8263,1.8268,0,0,0,0,0,0,0,0,0,0,0,0,0,1.8049,1.7977,1.8151,1.8142,1.8142,1.8226,1.8227,1.8228,1.8189,1.8186,1.8183,1.818,1.8257,1.8262,1.8268,1.8365,0,0,1.8286,1.8289,0,0,0,0,0,0,0,0,1.8045,1.8055,1.8143,1.8143,1.8143,1.8195,1.8192,1.8274,1.819,1.8171,1.8182,1.8179,1.824,1.8247,1.8268,1.8369,1.8372,1.8287,1.829,1.8293,1.8295,0,0,0,0,0,0,0,1.8039,1.8052,1.8181,1.8144,1.8144,1.8134,1.8141,1.8207,1.8222,1.8173,1.817,1.8179,1.824,1.8262,1.827,1.8373,1.8287,1.8292,1.8295,1.8298,1.8552,1.8555,0,0,0,0,0,0,1.8035,1.8048,1.8178,1.8183,1.8085,1.8139,1.8148,1.8181,1.8221,1.8224,1.8182,1.8177,1.8254,1.8263,1.8272,1.8385,1.8293,1.8298,1.8302,1.8549,1.8553,1.8556,0,0,0,0,0,0,1.8031,1.8047,1.8175,1.8115,1.813,1.8146,1.8183,1.8184,1.8207,1.8228,1.823,1.8202,1.8252,1.8264,1.8341,1.8388,1.8301,1.8306,1.8545,1.855,1.8554,1.8614,0,0,0,0,0,0,1.8026,1.8046,1.8084,1.8116,1.8134,1.8244,1.8186,1.8188,1.8217,1.8212,1.8248,1.8251,1.825,1.8332,1.8347,1.8394,1.8311,1.8541,1.8547,1.8553,1.8608,1.8621,1.8631,0,0,0,0,0,1.802,1.8099,1.8086,1.8102,1.8181,1.8247,1.8257,1.8255,1.8221,1.8258,1.8271,1.825,1.838,1.8341,1.8357,1.8406,1.8538,1.8545,1.8552,1.8603,1.8618,1.8631,0,0,0,0,0,0,1.8073,1.8103,1.8089,1.8181,1.8211,1.824,1.8288,1.8271,1.8313,1.8306,1.8301,1.831,1.839,1.8406,1.8361,1.85,1.8454,1.8464,1.8487,1.8501,1.8512,1.8507,1.8316,0,0,0,0,0,1.8095,1.8146,1.817,1.8248,1.8264,1.8273,1.8302,1.8297,1.8329,1.8342,1.836,1.8392,1.8439,1.8471,1.8516,1.861,1.8616,1.8652,1.8663,1.8672,1.8682,1.8729,1.8744,1.858,1.858,1.858,0,0,1.8142,1.8165,1.8198,1.8259,1.8283,1.8334,1.8285,1.8343,1.838,1.8351,1.8424,1.8438,1.8473,1.8558,1.8596,1.8574,1.8728,1.8681,1.8689,1.8693,1.8738,1.8753,1.8767,1.8585,1.8584,1.8583,0,0,1.8254,1.8277,1.8344,1.8367,1.8402,1.8406,1.8422,1.8452,1.846,1.8533,1.8511,1.8555,1.8639,1.8663,1.8686,1.8802,1.8783,1.8816,1.8877,1.8922,1.8935,1.8947,1.8986,1.9,1.8826,1.8826,1.8826,0,1.8309,1.8386,1.838,1.8438,1.8465,1.8438,1.8504,1.8527,1.8575,1.8593,1.8567,1.8668,1.8689,1.8778,1.8805,1.8826,1.8842,1.8813,1.8934,1.8945,1.8956,1.8993,1.9008,1.883,1.8829,1.8829,1.8828,0,1.8449,1.8503,1.8552,1.8597,1.8629,1.8692,1.8693,1.8726,1.8717,1.8724,1.8797,1.8821,1.8869,1.8889,1.8882,1.8976,1.896,1.8934,1.8888,1.8975,1.901,1.9024,1.8835,1.8834,1.8833,1.8832,0,0,1.8601,1.8638,1.8656,1.8674,1.8708,1.8749,1.8808,1.8854,1.8881,1.8914,1.8962,1.9031,1.9005,1.9032,1.9026,1.9067,1.9153,1.9035,1.9036,1.9055,1.9255,1.9273,1.929,1.914,1.9143,1.9145,1.9251,0,1.8713,1.8817,1.8811,1.8907,1.8955,1.8927,1.8978,1.9004,1.9011,1.9052,1.9059,1.9107,1.9071,1.9086,1.9125,1.9135,1.9193,1.9127,1.9184,1.9186,1.9176,1.9309,1.933,1.9429,1.9265,1.9267,1.9269,0,1.886,1.8895,1.8996,1.9019,1.9039,1.9085,1.9124,1.9163,1.919,1.9192,1.9219,1.9206,1.9264,1.9215,1.9293,1.9248,1.927,1.9278,1.9282,1.9287,1.9233,1.9317,1.9461,1.9475,1.9291,1.9289,1.9287,0,1.8958,1.9031,1.9099,1.9116,1.9145,1.9177,1.9191,1.9215,1.9241,1.9275,1.9291,1.9332,1.9354,1.9385,1.9382,1.9347,1.946,1.9412,1.9462,1.9463,1.9488,1.9487,1.9638,1.9504,1.9504,1.9504,1.9503,0,1.9084,1.9147,1.9143,1.9185,1.9253,1.9244,1.9311,1.9321,1.9342,1.9384,1.9363,1.9403,1.9397,1.9437,1.9435,1.9498,1.9509,1.9511,1.951,1.9513,1.9513,1.9528,1.9521,1.9507,1.9507,1.9506,1.9505,0,1.9206,1.9206,1.9279,1.9298,1.9304,1.9353,1.937,1.9409,1.9412,1.9466,1.9478,1.9483,1.9529,1.9528,1.9581,1.9579,1.9656,1.9648,1.9647,1.9645,1.9695,1.969,1.986,1.9881,1.9735,1.9736,1.9737,0,1.9287,1.9333,1.9357,1.9383,1.9398,1.9441,1.9467,1.9458,1.9486,1.9517,1.9552,1.9595,1.9629,1.9702,1.971,1.9749,1.9741,1.9797,1.9747,1.9747,1.974,1.9737,1.974,1.9808,1.9809,1.9811,1.9812,0,1.9429,1.9426,1.9463,1.95,1.953,1.9559,1.9586,1.9608,1.9602,1.9634,1.9679,1.9705,1.9756,1.9798,1.9834,1.9847,1.9828,1.9827,1.9841,1.9844,1.9841,1.9842,1.9673,1.9824,1.9823,1.9822,1.9821,1.9821,1.9532,1.9571,1.9592,1.9634,1.9651,1.9675,1.9712,1.9718,1.9755,1.9795,1.9788,1.9838,1.9859,1.9906,1.9922,1.996,1.994,1.996,1.9965,1.997,1.9974,1.9835,1.9966,1.9966,1.9966,1.9965,1.9965,0,1.9672,1.9683,1.9721,1.9757,1.9789,1.9766,1.9792,1.982,1.9864,1.9886,1.9918,1.9968,2.0007,2.0017,2.0055,2.0083,2.0075,2.0093,2.0091,2.0093,1.9991,1.9975,2.0099,2.0099,2.0098,2.0098,2.0098,2.0098,1.9749,1.9812,1.981,1.9881,1.9892,1.9939,1.9956,1.9977,1.9993,2.005,2.0081,2.0087,2.0103,2.014,2.0175,2.0176,2.0191,2.0212,2.021,2.0114,2.0101,2.0088,2.0073,2.0215,2.0216,2.0309,2.031,2.0311]},{"header":{"parameterUnit":"m.s-1","parameterCategory":1,"la1":30.2991,"la2":30.254,"lo1":-89.0895,"lo2":-89.0444,"dy":0.0017,"dx":0.0017,"nx":28,"ny":28,"refTime":"2024-07-14T09:00:00:Z","depth":0,"parameterNumber":3,"parameterNumberName":"V-component_of_WINDS"},"data":[0,0,0,0,0,0,0,0,0,0,0,0,0,0,0,0,0,0,0,0,0,0,0,0,0,0,0,0,0,0,0,0,0,0,0,0,0,0,0,0,0,0,0,0,0,0,0,0,0,0,0,0,0,0,0,0,0,0,1.2488,1.2487,0,1.2441,1.244,1.244,1.2354,1.2353,1.2351,1.2349,1.2302,1.2302,1.2303,0,0,0,0,0,0,0,0,0,0,0,0,0,1.2502,1.2502,1.2488,1.2487,1.2487,1.2441,1.244,1.244,1.2355,1.2353,1.2351,1.2349,1.2302,1.2302,1.2303,0,0,0,0,0,0,0,0,0,0,0,0,0,1.2479,1.2502,1.2488,1.2439,1.2434,1.2441,1.244,1.2439,1.2355,1.2353,1.235,1.2348,1.2302,1.2302,1.2303,1.2355,0,0,1.2304,1.2304,0,0,0,0,0,0,0,0,1.2481,1.2479,1.2446,1.2442,1.2437,1.2401,1.2428,1.2411,1.2356,1.2385,1.2349,1.2347,1.2337,1.2334,1.2331,1.2352,1.235,1.2304,1.2304,1.2305,1.2305,0,0,0,0,0,0,0,1.2482,1.248,1.2469,1.2446,1.244,1.2418,1.2412,1.2424,1.2375,1.2382,1.2376,1.2371,1.2334,1.2331,1.2329,1.235,1.2304,1.2304,1.2305,1.2305,1.2407,1.241,0,0,0,0,0,0,1.2491,1.2482,1.2471,1.2468,1.2453,1.242,1.2413,1.2415,1.2375,1.2367,1.2374,1.2368,1.2331,1.2329,1.2327,1.2383,1.2305,1.2305,1.2305,1.2405,1.2408,1.241,0,0,0,0,0,0,1.2492,1.2491,1.2472,1.2473,1.2469,1.2422,1.2425,1.2415,1.2412,1.2369,1.2359,1.238,1.2329,1.2327,1.2348,1.238,1.2305,1.2305,1.2402,1.2406,1.2409,1.2496,0,0,0,0,0,0,1.2493,1.2492,1.2512,1.2474,1.247,1.2494,1.2427,1.2416,1.2413,1.2405,1.2372,1.2364,1.2327,1.2347,1.2348,1.2379,1.2306,1.2399,1.2404,1.2408,1.249,1.2503,1.2513,0,0,0,0,0,1.2493,1.2539,1.2513,1.2512,1.2493,1.2497,1.2494,1.245,1.2416,1.2435,1.2406,1.2365,1.2377,1.235,1.235,1.2382,1.2397,1.2402,1.2408,1.2485,1.25,1.2513,0,0,0,0,0,0,1.2582,1.2533,1.2504,1.2539,1.2522,1.2482,1.2505,1.2468,1.2461,1.2454,1.24,1.2394,1.2421,1.2404,1.2375,1.2428,1.238,1.2386,1.2439,1.2453,1.2464,1.2467,1.2306,0,0,0,0,0,1.2606,1.2613,1.2569,1.2604,1.2597,1.2553,1.2553,1.252,1.2501,1.2494,1.2467,1.245,1.2449,1.245,1.2447,1.2487,1.2478,1.2509,1.252,1.253,1.2536,1.2553,1.2565,1.2429,1.2429,1.2429,0,0,1.2655,1.2629,1.2637,1.2621,1.2605,1.2612,1.2548,1.2559,1.2563,1.2496,1.2513,1.2493,1.247,1.25,1.2511,1.2486,1.2571,1.2537,1.2545,1.2545,1.256,1.2573,1.2584,1.2433,1.2432,1.2431,0,0,1.2748,1.273,1.2755,1.2739,1.2714,1.2684,1.269,1.2655,1.2638,1.2654,1.2603,1.2607,1.2608,1.2593,1.2585,1.2669,1.263,1.267,1.2729,1.2746,1.2757,1.2766,1.2794,1.2805,1.2675,1.2676,1.2676,0,1.2812,1.2821,1.2773,1.2787,1.2781,1.2718,1.2743,1.273,1.2706,1.2703,1.2674,1.2672,1.2652,1.2676,1.2696,1.2693,1.2697,1.2673,1.2759,1.2768,1.2776,1.2802,1.2813,1.268,1.268,1.2679,1.2679,0,1.29,1.2907,1.2931,1.2907,1.2904,1.2923,1.2877,1.2879,1.2847,1.2819,1.2835,1.2809,1.2798,1.2802,1.2771,1.2821,1.2805,1.2769,1.2719,1.2795,1.2818,1.2828,1.2687,1.2686,1.2684,1.2683,0,0,1.3049,1.2997,1.3006,1.2994,1.296,1.2965,1.298,1.2969,1.2971,1.2955,1.2966,1.2967,1.2932,1.2923,1.289,1.2905,1.297,1.2866,1.2865,1.2885,1.3021,1.3047,1.306,1.2944,1.2945,1.2947,1.3022,0,1.3134,1.3157,1.3113,1.3147,1.3151,1.309,1.3103,1.3084,1.3058,1.3057,1.3028,1.3028,1.2983,1.2977,1.299,1.296,1.2996,1.2954,1.2952,1.2952,1.2959,1.3072,1.3101,1.3174,1.3031,1.3033,1.3034,0,1.3236,1.3224,1.3258,1.322,1.322,1.3232,1.3217,1.3218,1.3193,1.3173,1.3162,1.3122,1.3132,1.3084,1.3098,1.307,1.3066,1.3051,1.3052,1.305,1.2997,1.3072,1.3196,1.3206,1.3048,1.3047,1.3046,0,1.3339,1.3332,1.335,1.3341,1.3298,1.3307,1.329,1.3263,1.3258,1.3244,1.324,1.3229,1.3222,1.3214,1.3171,1.314,1.3188,1.3137,1.3171,1.3172,1.3183,1.3183,1.3308,1.3183,1.3183,1.3183,1.3183,0,1.3438,1.346,1.3395,1.3407,1.3429,1.3378,1.3401,1.3377,1.3353,1.3358,1.3305,1.3311,1.3254,1.3253,1.3219,1.3234,1.3232,1.3215,1.3205,1.3219,1.3221,1.3215,1.3209,1.3186,1.3185,1.3185,1.3184,0,1.3557,1.3514,1.353,1.3486,1.3476,1.3494,1.3456,1.3464,1.3434,1.344,1.3439,1.3391,1.3386,1.3342,1.3329,1.3306,1.3333,1.3315,1.3341,1.3335,1.337,1.3367,1.3494,1.3507,1.3377,1.3378,1.3379,0,1.3622,1.3637,1.3595,1.3594,1.3578,1.3577,1.3571,1.3521,1.3516,1.3488,1.3499,1.349,1.348,1.3476,1.3439,1.3428,1.3408,1.3453,1.3406,1.3418,1.3406,1.3405,1.3406,1.3463,1.3465,1.3466,1.3467,0,1.3741,1.3719,1.3712,1.3698,1.3692,1.3678,1.3661,1.3664,1.3607,1.3605,1.3599,1.3591,1.3576,1.3567,1.3549,1.3529,1.3489,1.3482,1.3489,1.3503,1.3517,1.3508,1.3367,1.348,1.3479,1.3478,1.3477,1.3476,1.3834,1.3844,1.3814,1.3808,1.379,1.3774,1.3779,1.3748,1.3742,1.3725,1.3695,1.3693,1.3666,1.3637,1.362,1.3617,1.3594,1.3604,1.3606,1.361,1.3616,1.3518,1.3614,1.3614,1.3613,1.3613,1.3613,0,1.3949,1.3926,1.3921,1.3898,1.3893,1.3854,1.3833,1.383,1.3829,1.3807,1.3797,1.3789,1.378,1.3742,1.3728,1.3733,1.3713,1.373,1.3729,1.3725,1.3639,1.3634,1.3746,1.3746,1.3746,1.3746,1.3746,1.3746,1.4008,1.4022,1.3995,1.3999,1.3976,1.3973,1.3964,1.3949,1.393,1.3923,1.3915,1.389,1.386,1.3843,1.3832,1.3821,1.3818,1.3841,1.3824,1.3744,1.3731,1.3719,1.3714,1.3841,1.3841,1.3909,1.391,1.391]}]]